Weather History for Lake Charles Regional, LA

Change the Weather History Date:

Tuesday, August 27, 2013

  Actual Average Record
Temperature  
Mean Temperature 83 °F 82 °F  
Max Temperature 93 °F 92 °F 103 °F (1924)
Min Temperature 72 °F 74 °F 61 °F (1917)
Degree Days  
Heating Degree Days 0 0  
Month to date heating degree days 0 0  
Since 1 June heating degree days 0 0  
Since 1 July heating degree days 0 0  
Cooling Degree Days 18 17  
Month to date cooling degree days 527 485  
Year to date cooling degree days 2131 2056  
Since 1 June cooling degree days 1646 1518  
Growing Degree Days 32 (Base 50)    
Moisture  
Dew Point 71 °F    
Average Humidity 69    
Maximum Humidity 94    
Minimum Humidity 44    
Precipitation  
Precipitation 0.00 in 0.14 in 2.82 in (1972)
Month to date precipitation 3.71 4.20  
Year to date precipitation 39.00 37.56  
Snow  
Snow 0.00 in 0.00 in 0.00 in ()
Month to date snowfall 0.0 0.0  
Since 1 June snowfall 0.0 0.0  
Since 1 July snowfall 0.0 0.0  
Snow Depth 0.00 in    
Sea Level Pressure  
Sea Level Pressure 30.10 in    
Wind  
Wind Speed 4 mph (ESE)    
Max Wind Speed 10 mph    
Max Gust Speed 14 mph    
Visibility 10 miles    
Events      
T = Trace of Precipitation, MM = Missing Value Source: NWS Daily Summary

Daily Weather History Graph

Daily Weather History Graph

Search for Another Location

Airport:

Trip Planner

Search our weather history database for the weather conditions in past years. The results will help you decide how hot, cold, wet, or windy it might be!

Date:

Astronomy

Aug. 27, 2013 Rise Set
Actual Time 6:47 AM CDT 7:40 PM CDT
Civil Twilight 6:22 AM CDT 8:05 PM CDT
Nautical Twilight 5:53 AM CDT 8:34 PM CDT
Astronomical Twilight 5:23 AM CDT 9:04 PM CDT
Moon No Moon Rise 1:13 PM CDT (8/27)
Length of Visible Light 13h 42m
Length of Day
12h 53m
Waning Gibbous, 57% of the Moon is Illuminated
Aug 27
Waning Gibbous
Aug 28
Last Quarter
Sep 5
New
Sep 12
First Quarter
Sep 19
Full

Hourly Weather History & Observations

Time (CDT) Temp. Heat Index Dew Point Humidity Pressure Visibility Wind Dir Wind Speed Gust Speed Precip Events Conditions
12:53 AM 73.9 °F - 72.0 °F 93% 30.12 in 10.0 mi ENE 4.6 mph - N/A   Clear
1:53 AM 75.0 °F - 72.0 °F 90% 30.10 in 10.0 mi ENE 6.9 mph - N/A   Clear
2:53 AM 73.9 °F - 71.1 °F 91% 30.10 in 10.0 mi ENE 3.5 mph - N/A   Clear
3:53 AM 73.0 °F - 71.1 °F 93% 30.10 in 10.0 mi Calm Calm - N/A   Clear
4:53 AM 73.0 °F - 70.0 °F 90% 30.11 in 10.0 mi Calm Calm - N/A   Clear
5:53 AM 73.0 °F - 71.1 °F 93% 30.12 in 10.0 mi Calm Calm - N/A   Clear
6:53 AM 73.0 °F - 71.1 °F 93% 30.14 in 10.0 mi NE 5.8 mph - N/A   Clear
7:53 AM 75.0 °F - 72.0 °F 90% 30.14 in 10.0 mi ENE 6.9 mph - N/A   Partly Cloudy
8:53 AM 77.0 °F - 73.0 °F 88% 30.15 in 10.0 mi ENE 6.9 mph - N/A   Clear
9:53 AM 81.0 °F 85.2 °F 72.0 °F 74% 30.15 in 10.0 mi East 5.8 mph - N/A   Overcast
10:53 AM 84.0 °F 89.0 °F 71.1 °F 65% 30.15 in 10.0 mi Variable 6.9 mph - N/A   Partly Cloudy
11:53 AM 86.0 °F 90.1 °F 69.1 °F 57% 30.14 in 10.0 mi SE 4.6 mph - N/A   Clear
12:53 PM 88.0 °F 91.4 °F 68.0 °F 51% 30.12 in 10.0 mi East 5.8 mph - N/A   Clear
1:53 PM 89.1 °F 92.1 °F 66.9 °F 48% 30.11 in 10.0 mi Calm Calm - N/A   Clear
2:53 PM 90.0 °F 92.8 °F 66.9 °F 46% 30.08 in 10.0 mi Variable 4.6 mph - N/A   Mostly Cloudy
3:53 PM 91.0 °F 93.8 °F 66.0 °F 44% 30.06 in 10.0 mi East 4.6 mph - N/A   Scattered Clouds
4:53 PM 89.1 °F 92.9 °F 68.0 °F 50% 30.06 in 10.0 mi SSE 4.6 mph - N/A   Scattered Clouds
5:53 PM 90.0 °F 94.5 °F 69.1 °F 50% 30.06 in 10.0 mi SE 8.1 mph - N/A   Mostly Cloudy
6:53 PM 84.9 °F 90.7 °F 72.0 °F 65% 30.05 in 10.0 mi SSW 3.5 mph - N/A   Partly Cloudy
7:53 PM 82.0 °F 87.4 °F 73.0 °F 74% 30.05 in 10.0 mi SSW 3.5 mph - N/A   Partly Cloudy
8:53 PM 80.1 °F 84.2 °F 73.0 °F 79% 30.06 in 10.0 mi SSW 4.6 mph - N/A   Mostly Cloudy
9:53 PM 79.0 °F - 73.9 °F 84% 30.07 in 10.0 mi Calm Calm - N/A   Clear
10:53 PM 77.0 °F - 73.9 °F 90% 30.07 in 10.0 mi Calm Calm - N/A   Clear
11:53 PM 75.9 °F - 73.0 °F 91% 30.06 in 10.0 mi Calm Calm - N/A   Clear